Location: Archemont
(49.1579°N, 1.7598°E)
Time: 11:42:00
(UTC+00:00)

Vanguard 3 - Pass Details

Date: 21 April 2024
Orbit: 509 x 3233 km, 33.3° (Epoch: 25 May)

Event Time Altitude Azimuth Distance (km) Brightness Sun altitude
Exits shadow 04:06:22 - 228° (SW) 5,654 10.8 -7.2°
Reaches altitude 10° 04:08:32 10° 224° (SW) 5,104 10.6 -6.9°
Maximum altitude 04:19:09 28° 174° (S) 2,907 9.8 -5.4°
Drops below altitude 10° 04:26:09 10° 119° (ESE) 3,284 10.8 -4.3°
Sets 04:28:54 0° 107° (ESE) 3,923 11.5 -3.9°
